Location: Scarborough
(54.2834°N, 0.3925°W)
Time: 20:24:39
(UTC+01:00)

ISS - Visible Passes

Search period start: 20 May 2018 00:00
Search period end: 30 May 2018 00:00
Orbit: 402 x 407 km, 51.6° (Epoch: 21 May)

Date Brightness Start Highest point End Pass type
(mag) Time Alt. Az. Time Alt. Az. Time Alt. Az.
20 May -3.5 00:38:56 41° S 00:39:14 42° SSE 00:42:22 10° E visible
20 May -3.7 02:12:17 10° W 02:15:29 51° S 02:18:40 10° ESE visible
20 May -2.8 03:48:49 10° W 03:51:36 26° SSW 03:54:23 10° SSE visible
20 May -1.8 22:10:21 10° SSE 22:11:24 11° SE 22:12:27 10° ESE visible
20 May -3.2 23:44:11 10° SW 23:47:11 34° SSE 23:50:11 10° E visible
21 May -3.8 01:20:10 10° WSW 01:23:23 54° S 01:26:35 10° ESE visible
21 May -3.2 02:56:34 10° W 02:59:35 34° SSW 03:02:35 10° SE visible
21 May -2.8 22:52:23 10° SSW 22:55:10 26° SSE 22:57:56 10° E visible
22 May -3.8 00:28:04 10° WSW 00:31:16 51° S 00:34:27 10° E visible
22 May -3.5 02:04:23 10° W 02:07:30 42° SSW 02:10:38 10° ESE visible
22 May -2.2 03:41:16 10° WSW 03:43:27 17° SSW 03:45:38 10° S visible
22 May -2.4 22:00:47 10° SSW 22:03:09 19° SSE 22:05:33 10° ESE visible
22 May -3.6 23:36:00 10° WSW 23:39:09 45° SSE 23:42:18 10° E visible
23 May -3.7 01:12:13 10° W 01:15:23 50° S 01:18:34 10° ESE visible
23 May -2.7 02:48:48 10° W 02:51:28 23° SSW 02:54:08 10° SSE visible
23 May -3.3 22:43:59 10° SW 22:47:02 37° SSE 22:50:06 10° E visible
24 May -3.8 00:20:03 10° W 00:23:16 53° S 00:26:28 10° ESE visible
24 May -3.1 01:56:29 10° W 01:59:26 31° SSW 02:00:18 26° S visible
24 May -3.7 23:27:54 10° WSW 23:31:06 53° S 23:34:18 10° E visible
25 May -3.4 01:04:14 10° W 01:07:20 39° SSW 01:08:15 31° SSE visible
25 May -3.6 22:35:46 10° WSW 22:38:56 48° S 22:42:07 10° E visible
26 May -3.6 00:12:02 10° W 00:15:11 47° S 00:17:10 20° ESE visible
26 May -1.9 01:48:41 10° W 01:49:47 16° WSW 01:49:47 16° WSW visible
26 May -3.7 23:19:49 10° W 23:23:01 53° S 23:26:14 10° ESE visible
27 May -2.8 00:56:17 10° W 00:58:55 28° SSW 00:58:55 28° SSW visible
27 May -3.7 22:27:37 10° WSW 22:30:50 54° S 22:34:02 10° E visible
28 May -3.2 00:03:59 10° W 00:07:02 36° SSW 00:08:10 27° SSE visible
28 May -3.5 23:11:43 10° W 23:14:53 45° SSW 23:17:29 14° ESE visible
29 May -2.0 00:48:30 10° WSW 00:50:06 17° SW 00:50:06 17° SW visible
29 May -3.6 22:19:28 10° W 22:22:40 51° S 22:25:52 10° ESE visible
